USA 271

Last updated on Nov. 16, 2019, 4:19 a.m. UTC

1 41745U 16052B   19319.65238878 -.00000093  00000-0  00000+0 0  9997
2 41745   0.0913  86.8316 0000623 149.3307 215.9380  1.00179338  3829
UTC
Height (km)
Latitude
Longitude
Inclination
Orbital Period
UTC large
Height (km)
Speed (km/s)
/
Latitude / Longitude
Inclination (degrees)
Orbital Period (minutes)
Azimuth
Elevation
Range (km)
Doppler Factor
iOS Compass Heading
iOS Angle

Next 30 passes for location: Hong Kong

Rise time Rise Azimuth (degrees) Set time Set Azimuth (degrees) Duration Max altitude (degrees)

No matching passes for this satellites